Flag for Romania Weather past 2 weeks in Timișoara, Romania

37 °F


Feels Like: 31 °F
Forecast: 29 / 43 °F
Wind: 8 mph from Southwest

Location: Timisoara Airport

Current Time: Nov 28, 2015 at 7:28:41 PM

Latest Report: Nov 28, 2015 at 7:00 PM

Visibility: 3 mi

Pressure: 29.92 "Hg

Humidity: 93%

Dew point: 36 °F

Location of TimișoaraLocation

Historic Weather in Timișoara — Graph


Timișoara temperature yesterday

Maximum temperature yesterday: 43 °F (at 1:00 PM)
Minimum temperature yesterday: 37 °F (at 12:00 AM)
Average temperature yesterday: 39 °F

Past Weeks' High & Low Weather Summary

High64 °F (Nov 17, 12:30 PM)100% (Nov 13, 8:30 PM)30.30 "Hg (Nov 13, 8:30 PM)
Low32 °F (Nov 23, 9:30 PM)36% (Nov 14, 2:30 PM)29.24 "Hg (Nov 21, 10:00 PM)
Average44 °F88%29.94 "Hg
* Reported Nov 13 6:00 PM — Nov 28 6:00 PM, Timișoara, Weather by CustomWeather, © 2015

Note: Actual official high and low records may vary slightly from our data, if they occured in-between our weather recording intervals... More about our weather records


Timișoara weather history for previous 24 hours

Time TempWeatherWind HumidityBarometerVisibility
6:00 PM
Sat, Nov 28
37 °FLow clouds.9 mph100%29.89 "Hg4 mi
5:30 PM37 °FLow clouds.7 mph100%29.86 "Hg5 mi
5:00 PM37 °FDrizzle. Low clouds.7 mph100%29.86 "Hg6 mi
4:30 PM37 °FDrizzle. Low clouds.8 mph100%29.86 "HgN/A
4:00 PM37 °FDrizzle. Low clouds.6 mph100%29.86 "HgN/A
3:30 PM37 °FDrizzle. Low clouds.6 mph100%29.83 "HgN/A
3:00 PM37 °FDrizzle. Low clouds.6 mph100%29.83 "HgN/A
2:30 PM37 °FDrizzle. Low clouds.8 mph100%29.83 "HgN/A
2:00 PM37 °FMostly cloudy.9 mph100%29.83 "HgN/A
1:30 PM37 °FMostly cloudy.8 mph100%29.83 "HgN/A
1:00 PM37 °FMostly cloudy.9 mph100%29.83 "HgN/A
12:30 PM39 °FMostly cloudy.10 mph93%29.83 "HgN/A
12:00 PM37 °FLight rain. Mostly cloudy.8 mph100%29.83 "HgN/A
11:30 AM39 °FLight rain. Mostly cloudy.6 mph93%29.83 "Hg6 mi
11:00 AM37 °FLight rain. Mostly cloudy.6 mph100%29.83 "Hg6 mi
10:30 AM37 °FLight rain. Mostly cloudy.3 mph100%29.83 "Hg4 mi
10:00 AM37 °FLight rain. Fog.3 mph100%29.83 "Hg3 mi
9:30 AM37 °FLight rain. Fog.3 mph93%29.80 "Hg3 mi
9:00 AM37 °FLight rain. Fog.6 mph93%29.80 "Hg3 mi
8:30 AM37 °FLight rain. Fog.3 mph93%29.80 "Hg3 mi
8:00 AM37 °FLight rain. Fog.3 mph93%29.80 "Hg2 mi
7:30 AM37 °FLight rain. Fog.5 mph93%29.80 "Hg3 mi
6:30 AM37 °FLight rain. Fog.5 mph93%29.77 "Hg2 mi
6:00 AM37 °FLight rain. Fog.3 mph93%29.77 "Hg2 mi
5:30 AM37 °FLight rain. Fog.5 mph100%29.77 "Hg2 mi
5:00 AM37 °FLight rain. Fog.3 mph100%29.77 "Hg2 mi
4:30 AM37 °FLight rain. Fog.3 mph100%29.77 "Hg2 mi
4:00 AM37 °FDrizzle. Fog.2 mph100%29.77 "Hg3 mi
3:30 AM37 °FDrizzle. Fog.2 mph100%29.80 "Hg3 mi
2:00 AM39 °FLight rain. Fog.10 mph93%29.80 "Hg3 mi
1:30 AM39 °FRain. Fog.7 mph93%29.80 "Hg2 mi
1:00 AM39 °FRain. Fog.6 mph100%29.80 "Hg2 mi
12:30 AM39 °FRain. Fog.5 mph100%29.83 "Hg2 mi
12:00 AM39 °FRain. Fog.6 mph100%29.83 "Hg2 mi
11:30 PM
Fri, Nov 27
39 °FRain. Fog.7 mph100%29.83 "Hg3 mi
11:00 PM39 °FRain. Fog.8 mph100%29.83 "Hg3 mi
10:30 PM39 °FRain. Fog.7 mph100%29.83 "Hg3 mi
10:00 PM39 °FRain. Fog.7 mph100%29.86 "Hg3 mi
9:30 PM39 °FRain. Fog.6 mph100%29.86 "Hg3 mi
9:00 PM39 °FLight rain. Fog.6 mph100%29.86 "Hg3 mi
8:30 PM39 °FLight rain. Fog.8 mph100%29.86 "Hg3 mi
8:00 PM39 °FPassing clouds.9 mph100%29.86 "Hg4 mi
7:30 PM39 °FFog.10 mph100%29.89 "Hg3 mi
7:00 PM39 °FFog.8 mph100%29.89 "Hg3 mi
Weather by CustomWeather, © 2015

See weather overviewHow to use our weather pages